"Timestamp","TZ","WindDir_Mean (deg)","WindSpd_Mean (km/h)","WindSpd_Min (km/h)","WindSpd_Max (km/h)","Temp_Mean (deg)","RH_Mean (%)","MSLP_Mean (hPa)","Rain_Acc (mm)","Rain_Intensity (mm/h)","Hail_Acc (hits/cm2)","Hail_Intensity (hits/cm2hr)","Solar_Mean (W/m2)"
2022/07/02 00:00:00.014,n,266,3.96,3.6,4.32,14.6,87,1021.12,0.03,2.3,0,0,0.030479
2022/07/02 00:01:00.000,n,274,6.48,6.48,7.2,14.6,87,1021.12,0.07,1.8,0,0,0.031319
2022/07/02 00:02:00.001,n,289,5.4,4.32,6.12,14.7,87,1021.12,0.09,1,0,0,0.032196
2022/07/02 00:03:00.000,n,263,5.04,4.68,5.4,14.7,87,1021.02,0.11,1.4,0,0,0.030479
2022/07/02 00:04:00.000,n,254,5.04,4.32,5.76,14.7,86.9,1021.02,0.13,1.5,0,0,0.032196
2022/07/02 00:05:00.000,n,277,4.68,4.32,5.04,14.6,86.8,1021.02,0.15,0.9,0,0,0.033951
2022/07/02 00:06:00.008,n,271,3.24,3.24,3.24,14.6,86.8,1021.02,0.16,0.6,0,0,0.030479
2022/07/02 00:07:00.006,n,274,4.68,3.6,5.4,14.6,86.9,1020.92,0.17,0.7,0,0,0.032196
2022/07/02 00:08:00.004,n,271,6.48,4.68,7.2,14.6,86.9,1020.92,0.18,0.8,0,0,0.031319
2022/07/02 00:09:00.001,n,250,6.84,5.76,7.2,14.6,86.8,1020.92,0.2,1.1,0,0,0.032196
2022/07/02 00:10:00.000,n,258,5.4,4.32,6.12,14.6,86.8,1020.92,0.21,0.4,0,0,0.030479
2022/07/02 00:11:00.000,n,274,3.96,3.24,4.68,14.6,86.8,1020.92,0.22,0.7,0,0,0.030479
2022/07/02 00:12:00.000,n,236,1.44,1.44,2.52,14.6,86.9,1020.82,0.23,0.6,0,0,0.030479
2022/07/02 00:13:00.000,n,240,2.88,1.8,3.24,14.6,86.9,1020.82,0.24,0.6,0,0,0.030479
2022/07/02 00:14:00.007,n,164,0.72,0,1.08,14.6,87,1020.82,0.25,0.2,0,0,0.029602
2022/07/02 00:15:00.004,n,261,1.8,0.36,3.24,14.6,87.1,1020.92,0.25,0.3,0,0,0.030479
2022/07/02 00:16:00.002,n,214,0.72,0.36,1.08,14.7,87.2,1020.92,0.26,0.4,0,0,0.028763
2022/07/02 00:17:00.000,n,250,5.4,4.68,5.76,14.7,87,1020.92,0.26,0.1,0,0,0.02697
2022/07/02 00:18:00.014,n,259,4.32,3.6,5.04,14.7,87,1020.92,0.27,0.4,0,0,0.026131
2022/07/02 00:19:00.000,n,298,1.8,1.08,2.88,14.6,87,1020.92,0.28,0.3,0,0,0.02697
2022/07/02 00:20:00.000,n,356,1.08,0.72,1.44,14.6,87,1020.92,0.28,0.2,0,0,0.02697
2022/07/02 00:21:00.000,n,249,5.04,4.68,5.4,14.6,86.9,1020.92,0.29,0.2,0,0,0.02697
2022/07/02 00:22:00.007,n,269,5.4,5.04,5.76,14.6,86.9,1020.92,0.29,0.4,0,0,0.025253
2022/07/02 00:23:00.000,n,272,4.32,3.96,5.04,14.6,86.9,1020.82,0.3,0.6,0,0,0.027847
2022/07/02 00:24:00.002,n,282,1.8,0.72,3.24,14.6,86.9,1020.82,0.31,0.3,0,0,0.027847
2022/07/02 00:25:00.008,n,207,1.8,1.08,2.52,14.6,86.9,1020.82,0.32,0.3,0,0,0.026131
2022/07/02 00:26:00.014,n,267,3.96,3.6,5.04,14.6,86.9,1020.82,0.32,0.2,0,0,0.028763
2022/07/02 00:27:00.004,n,275,1.44,1.08,1.8,14.6,86.9,1020.72,0.32,0.1,0,0,0.028763
2022/07/02 00:28:00.000,n,274,5.04,4.68,5.4,14.6,86.9,1020.72,0.33,0.2,0,0,0.029602
2022/07/02 00:29:00.000,n,229,1.8,1.08,2.52,14.6,86.9,1020.72,0.33,0.2,0,0,0.028763
2022/07/02 00:30:00.000,n,263,4.32,3.24,5.04,14.6,86.9,1020.72,0.34,0.2,0,0,0.029602
2022/07/02 00:31:00.000,n,255,5.4,5.04,5.76,14.6,86.9,1020.72,0.34,0.2,0,0,0.027847
2022/07/02 00:32:00.002,n,258,2.88,2.52,3.24,14.6,86.9,1020.72,0.34,0.1,0,0,0.028763
2022/07/02 00:33:00.009,n,196,2.52,1.8,3.24,14.6,87,1020.72,0.36,0.7,0,0,0.02697
2022/07/02 00:34:00.000,n,246,4.68,3.96,5.04,14.6,86.9,1020.72,0.36,0,0,0,0.02697
2022/07/02 00:35:00.004,n,253,3.96,3.24,4.32,14.6,87,1020.72,0.36,0.3,0,0,0.029602
2022/07/02 00:36:00.009,n,244,3.6,2.88,3.96,14.6,87,1020.72,0.36,0,0,0,0.02697
2022/07/02 00:37:00.000,n,273,0.72,0.72,1.08,14.6,87,1020.72,0.37,0.1,0,0,0.025253
2022/07/02 00:38:00.000,n,304,1.08,0.72,2.16,14.6,87,1020.72,0.37,0.1,0,0,0.028763
2022/07/02 00:39:00.000,n,117,0.72,0.36,2.16,14.7,87.2,1020.72,0.39,1.2,0,0,0.028763
2022/07/02 00:40:00.002,n,272,2.16,1.44,2.88,14.7,87.3,1020.72,0.39,0,0,0,0.02697
2022/07/02 00:41:00.008,n,286,2.52,2.16,2.52,14.7,87.3,1020.72,0.39,0,0,0,0.027847
2022/07/02 00:42:00.000,n,239,0.72,0.36,0.72,14.7,87.2,1020.72,0.39,0,0,0,0.027847
2022/07/02 00:43:00.004,n,211,0.36,0.36,0.72,14.7,87.2,1020.72,0.39,0.1,0,0,0.02697
2022/07/02 00:44:00.010,n,158,3.24,2.16,3.96,14.7,87.1,1020.72,0.39,0,0,0,0.027847
2022/07/02 00:45:00.016,n,253,6.12,5.4,6.84,14.7,87,1020.72,0.39,0,0,0,0.023499
2022/07/02 00:46:00.000,n,158,2.16,1.8,2.52,14.7,87,1020.72,0.39,0,0,0,0.02697
2022/07/02 00:47:00.000,n,217,3.24,2.88,3.96,14.7,87,1020.72,0.39,0,0,0,0.026131
2022/07/02 00:48:00.001,n,178,1.8,1.44,2.52,14.7,87,1020.72,0.39,0,0,0,0.028763
2022/07/02 00:49:00.007,n,273,3.96,2.88,4.68,14.7,87.1,1020.72,0.39,0,0,0,0.028763
2022/07/02 00:50:00.000,n,148,2.88,2.16,3.96,14.7,87.1,1020.62,0.39,0,0,0,0.02697
2022/07/02 00:51:00.003,n,258,2.88,0.72,4.32,14.7,87.1,1020.62,0.39,0,0,0,0.025253
2022/07/02 00:52:00.009,n,261,0.36,0.36,0.36,14.7,87.1,1020.62,0.39,0,0,0,0.029602
2022/07/02 00:53:00.000,n,195,4.32,2.52,5.4,14.7,87,1020.62,0.39,0,0,0,0.030479
2022/07/02 00:54:00.004,n,205,3.24,2.52,3.6,14.7,87,1020.62,0.39,0,0,0,0.029602
2022/07/02 00:55:00.000,n,299,3.24,2.16,4.32,14.7,87.1,1020.62,0.39,0,0,0,0.029602
2022/07/02 00:56:00.000,n,255,1.08,0.36,2.16,14.7,87.1,1020.72,0.39,0,0,0,0.029602
2022/07/02 00:57:00.005,n,223,2.52,2.16,2.88,14.7,87,1020.72,0.39,0,0,0,0.031319
2022/07/02 00:58:00.000,n,173,1.8,1.8,2.16,14.7,87,1020.72,0.39,0,0,0,0.028763
2022/07/02 00:59:00.000,n,147,0.72,0.36,1.44,14.7,87.1,1020.72,0.39,0,0,0,0.030479
2022/07/02 01:00:00.004,n,220,3.96,3.6,4.32,14.7,87.1,1020.72,0.39,0,0,0,0.030479
2022/07/02 01:01:00.010,n,168,2.52,2.16,3.24,14.7,87.1,1020.62,0.39,0,0,0,0.031319
2022/07/02 01:02:00.000,n,274,3.96,3.6,4.32,14.7,87.1,1020.62,0.39,0,0,0,0.031319
2022/07/02 01:03:00.005,n,173,1.44,0.72,2.52,14.7,87.2,1020.62,0.39,0,0,0,0.030479
2022/07/02 01:04:00.000,n,192,2.16,1.08,2.88,14.7,87.1,1020.62,0.39,0.1,0,0,0.029602
2022/07/02 01:05:00.000,n,237,3.96,3.6,4.68,14.7,87,1020.62,0.39,0,0,0,0.030479
2022/07/02 01:06:00.000,n,244,1.44,0.72,2.52,14.7,87.1,1020.52,0.39,0,0,0,0.032196
2022/07/02 01:07:00.000,n,208,2.52,2.16,2.88,14.7,87.1,1020.52,0.4,0,0,0,0.030479
2022/07/02 01:08:00.002,n,203,1.8,1.08,2.52,14.7,87.1,1020.52,0.4,0,0,0,0.027847
2022/07/02 01:09:00.010,n,204,1.8,0.72,2.52,14.7,87.1,1020.52,0.4,0,0,0,0.030479
2022/07/02 01:10:00.000,n,243,4.68,3.6,5.4,14.7,87,1020.52,0.4,0.3,0,0,0.027847
2022/07/02 01:11:00.006,n,291,2.88,2.16,3.24,14.7,87,1020.52,0.4,0,0,0,0.033112
2022/07/02 01:12:00.012,n,104,1.44,0.72,2.16,14.7,87.1,1020.42,0.43,1.4,0,0,0.032196
2022/07/02 01:13:00.002,n,204,0.72,0.36,1.08,14.7,87.2,1020.42,0.43,0,0,0,0.032196
2022/07/02 01:14:00.000,n,229,6.12,5.76,6.48,14.7,87.1,1020.42,0.43,0.1,0,0,0.032196
2022/07/02 01:15:00.000,n,159,2.16,1.44,2.88,14.7,87,1020.42,0.43,0,0,0,0.033112
2022/07/02 01:16:00.003,n,278,3.24,2.52,3.6,14.7,87,1020.32,0.44,0.3,0,0,0.029602
2022/07/02 01:17:00.009,n,306,2.52,1.8,3.96,14.7,87.1,1020.32,0.44,0.2,0,0,0.032196
2022/07/02 01:18:00.000,n,216,2.88,2.52,2.88,14.7,87.2,1020.32,0.44,0,0,0,0.031319
2022/07/02 01:19:00.005,n,148,2.16,1.08,2.88,14.7,87.1,1020.32,0.44,0,0,0,0.029602
2022/07/02 01:20:00.011,n,255,3.24,2.88,3.6,14.7,87,1020.32,0.44,0,0,0,0.028763
2022/07/02 01:21:00.000,n,265,1.44,1.08,2.16,14.7,87.1,1020.22,0.44,0,0,0,0.032196
2022/07/02 01:22:00.000,n,287,3.96,3.24,5.04,14.7,87.1,1020.22,0.45,0.5,0,0,0.031319
2022/07/02 01:23:00.000,n,252,3.96,3.24,4.68,14.7,87.1,1020.22,0.45,0,0,0,0.031319
2022/07/02 01:24:00.002,n,224,2.16,1.44,2.88,14.7,87,1020.32,0.48,0,0,0,0.033951
2022/07/02 01:25:00.000,n,258,3.6,3.24,3.6,14.7,87,1020.32,0.48,1.7,0,0,0.028763
2022/07/02 01:26:00.000,n,197,1.44,1.08,1.44,14.7,87,1020.32,0.48,0,0,0,0.031319
2022/07/02 01:27:00.003,n,194,0.72,0.36,0.72,14.7,87.1,1020.32,0.48,0.1,0,0,0.035706
2022/07/02 01:28:00.009,n,312,1.08,0.72,1.08,14.7,87.2,1020.32,0.5,0,0,0,0.033112
2022/07/02 01:29:00.000,n,95,1.08,0.36,1.8,14.7,87.3,1020.22,0.51,1.2,0,0,0.032196
2022/07/02 01:30:00.005,n,236,3.6,2.52,3.96,14.8,87.2,1020.32,0.51,0.1,0,0,0.031319
2022/07/02 01:31:00.000,n,238,2.16,1.44,2.52,14.7,87.1,1020.32,0.51,0.1,0,0,0.032196
2022/07/02 01:32:00.001,n,198,1.8,1.44,2.16,14.7,87.1,1020.32,0.52,0.8,0,0,0.029602
2022/07/02 01:33:00.000,n,272,2.52,1.44,3.24,14.7,87,1020.32,0.52,0,0,0,0.033112
2022/07/02 01:34:00.000,n,199,3.6,2.52,5.04,14.7,87,1020.22,0.53,0.4,0,0,0.033951
2022/07/02 01:35:00.002,n,227,3.6,3.24,3.6,14.7,87,1020.22,0.54,0,0,0,0.032196
2022/07/02 01:36:00.009,n,252,0.36,0,0.72,14.7,87,1020.22,0.54,0.8,0,0,0.033112
2022/07/02 01:37:00.000,n,246,1.08,1.08,1.44,14.7,87.1,1020.22,0.54,0,0,0,0.035706
2022/07/02 01:38:00.004,n,160,4.68,3.96,5.76,14.7,87.2,1020.22,0.55,0.2,0,0,0.035706
2022/07/02 01:39:00.010,n,273,5.04,5.04,5.76,14.7,87.1,1020.22,0.55,0,0,0,0.033951
2022/07/02 01:40:00.000,n,284,1.08,0,2.16,14.7,87.1,1020.12,0.55,0,0,0,0.033112
2022/07/02 01:41:00.000,n,201,0.72,0.36,2.16,14.7,87,1020.12,0.55,0,0,0,0.034828
2022/07/02 01:42:00.000,n,145,1.8,1.44,2.16,14.7,87.1,1020.12,0.55,0,0,0,0.034828
2022/07/02 01:43:00.000,n,216,0.72,0,1.08,14.7,87.1,1020.12,0.55,0,0,0,0.036545
2022/07/02 01:44:00.007,n,194,2.52,2.16,2.52,14.7,87.1,1020.02,0.55,0,0,0,0.0383
2022/07/02 01:45:00.000,n,127,2.16,0.72,4.32,14.7,87.1,1020.02,0.55,0,0,0,0.035706
2022/07/02 01:46:00.002,n,237,1.44,0.72,1.8,14.7,87.1,1020.02,0.55,0,0,0,0.034828
2022/07/02 01:47:00.008,n,217,3.96,3.6,5.04,14.7,87.1,1020.02,0.55,0,0,0,0.034828
2022/07/02 01:48:00.015,n,299,1.8,0.72,3.6,14.7,87.1,1020.02,0.55,0,0,0,0.033951
2022/07/02 01:49:00.000,n,189,1.8,1.08,2.52,14.7,87.2,1020.02,0.55,0,0,0,0.034828
2022/07/02 01:50:00.000,n,152,2.16,1.44,3.96,14.7,87.1,1020.02,0.55,0,0,0,0.034828
2022/07/02 01:51:00.000,n,143,2.88,2.16,3.6,14.7,87.1,1020.02,0.55,0,0,0,0.033951
2022/07/02 01:52:00.005,n,338,1.44,0.72,2.52,14.7,87.1,1020.02,0.55,0,0,0,0.035706
2022/07/02 01:53:00.000,n,157,5.4,4.68,6.48,14.7,87.1,1020.02,0.56,0.4,0,0,0.03746
2022/07/02 01:54:00.000,n,184,1.8,1.44,2.16,14.7,87.1,1020.02,0.56,0,0,0,0.035706
2022/07/02 01:55:00.006,n,193,3.96,3.6,4.32,14.7,87.1,1020.02,0.58,1.2,0,0,0.0383
2022/07/02 01:56:00.012,n,155,1.08,1.08,1.08,14.7,87.1,1020.02,0.58,0,0,0,0.03746
2022/07/02 01:57:00.002,n,249,1.08,0.72,1.44,14.7,87.1,1020.02,0.58,0,0,0,0.036545
2022/07/02 01:58:00.000,n,264,2.52,2.16,2.52,14.7,87.2,1020.02,0.58,0,0,0,0.034828
2022/07/02 01:59:00.000,n,266,4.32,3.96,4.68,14.7,87.2,1020.02,0.58,0,0,0,0.036545
2022/07/02 02:00:00.003,n,276,3.96,3.24,5.04,14.7,87.2,1020.02,0.58,0,0,0,0.036545
2022/07/02 02:01:00.000,n,246,4.32,3.6,4.68,14.7,87.2,1020.02,0.58,0,0,0,0.036545
2022/07/02 02:02:00.000,n,254,3.24,2.88,4.32,14.7,87.1,1020.02,0.58,0,0,0,0.034828
2022/07/02 02:03:00.004,n,306,2.16,2.16,2.52,14.7,87.3,1020.02,0.58,0,0,0,0.033951
2022/07/02 02:04:00.010,n,246,2.88,2.88,3.24,14.8,87.3,1020.02,0.58,0,0,0,0.034828
2022/07/02 02:05:00.000,n,260,3.24,2.52,3.96,14.8,87.3,1020.02,0.58,0,0,0,0.035706
2022/07/02 02:06:00.005,n,275,3.24,2.52,3.96,14.8,87.4,1020.02,0.58,0,0,0,0.036545
2022/07/02 02:07:00.000,n,235,1.44,1.44,1.8,14.8,87.3,1020.02,0.58,0,0,0,0.040894
2022/07/02 02:08:00.000,n,237,2.88,2.16,2.88,14.8,87.2,1020.02,0.58,0,0,0,0.033951
2022/07/02 02:09:00.000,n,48,1.08,0.36,1.44,14.8,87.2,1020.02,0.58,0,0,0,0.033951
2022/07/02 02:10:00.000,n,273,1.44,0.72,1.8,14.8,87.2,1020.02,0.58,0,0,0,0.034828
2022/07/02 02:11:00.005,n,210,2.16,1.08,2.52,14.8,87.2,1019.92,0.58,0,0,0,0.035706
2022/07/02 02:12:00.010,n,154,1.44,0.72,1.8,14.8,87.2,1019.92,0.58,0,0,0,0.033951
2022/07/02 02:13:00.000,n,283,5.76,5.4,6.84,14.8,87.1,1019.92,0.58,0,0,0,0.036545
2022/07/02 02:14:00.005,n,244,1.08,0.72,1.44,14.7,87.1,1019.92,0.58,0,0,0,0.036545
2022/07/02 02:15:00.011,n,280,5.04,3.96,6.12,14.7,87.1,1019.92,0.59,0.1,0,0,0.0383
2022/07/02 02:16:00.001,n,268,2.16,2.16,2.88,14.8,87.2,1019.92,0.59,0.3,0,0,0.032196
2022/07/02 02:17:00.000,n,236,2.52,2.16,2.52,14.8,87.2,1019.92,0.59,0,0,0,0.03746
2022/07/02 02:18:00.000,n,228,3.24,2.52,3.6,14.7,87.1,1020.02,0.59,0.1,0,0,0.035706
2022/07/02 02:19:00.003,n,244,5.04,4.68,5.4,14.7,87,1020.02,0.6,0.3,0,0,0.035706
2022/07/02 02:20:00.000,n,246,3.24,2.88,3.6,14.7,87,1020.02,0.6,0,0,0,0.039177
2022/07/02 02:21:00.000,n,271,5.04,5.04,5.4,14.7,87,1020.02,0.6,0.1,0,0,0.03746
2022/07/02 02:22:00.005,n,272,3.96,3.24,4.32,14.7,87,1020.02,0.6,0,0,0,0.036545
2022/07/02 02:23:00.011,n,242,2.88,2.52,3.6,14.7,87.1,1020.02,0.61,0.6,0,0,0.034828
2022/07/02 02:24:00.000,n,269,3.96,3.6,4.68,14.7,87.1,1020.02,0.62,0,0,0,0.0383
2022/07/02 02:25:00.000,n,266,6.12,5.4,6.84,14.7,87.1,1020.02,0.62,0.1,0,0,0.036545
2022/07/02 02:26:00.000,n,263,4.32,3.6,4.68,14.7,87,1020.02,0.62,0.2,0,0,0.039177
2022/07/02 02:27:00.005,n,257,5.4,5.04,5.76,14.7,87,1020.02,0.63,0.2,0,0,0.0383
2022/07/02 02:28:00.000,n,264,11.16,10.440002,11.88,14.7,87.1,1020.02,0.63,0.2,0,0,0.036545
2022/07/02 02:29:00.000,n,239,4.68,3.6,5.4,14.7,87.1,1020.02,0.63,0.1,0,0,0.036545
2022/07/02 02:30:00.006,n,258,7.2,6.84,7.56,14.7,87,1020.02,0.64,0.2,0,0,0.034828
2022/07/02 02:31:00.012,n,259,3.6,3.24,4.32,14.7,87,1020.02,0.64,0,0,0,0.036545
2022/07/02 02:32:00.002,n,265,4.32,3.6,4.32,14.7,87,1019.92,0.64,0.2,0,0,0.036545
2022/07/02 02:33:00.008,n,242,3.96,3.24,4.68,14.6,87,1019.92,0.65,0.2,0,0,0.03746
2022/07/02 02:34:00.000,n,265,3.96,3.6,4.68,14.6,87,1019.92,0.65,0.2,0,0,0.040894
2022/07/02 02:35:00.004,n,283,2.88,2.16,3.6,14.6,87,1019.82,0.66,0.8,0,0,0.0383
2022/07/02 02:36:00.000,n,252,2.16,1.8,2.52,14.6,87.1,1019.82,0.67,0.1,0,0,0.034828
2022/07/02 02:37:00.000,n,271,5.76,5.04,6.48,14.6,87.1,1019.82,0.67,0,0,0,0.03746
2022/07/02 02:38:00.006,n,228,2.16,1.8,2.52,14.6,87.1,1019.82,0.68,0.6,0,0,0.03746
2022/07/02 02:39:00.000,n,252,2.52,2.16,2.88,14.6,87.1,1019.82,0.68,0.1,0,0,0.0383
2022/07/02 02:40:00.002,n,275,5.4,3.96,6.48,14.7,87.2,1019.82,0.68,0.1,0,0,0.035706
2022/07/02 02:41:00.007,n,248,3.96,3.24,4.68,14.7,87.1,1019.82,0.68,0.2,0,0,0.035706
2022/07/02 02:42:00.014,n,257,6.12,5.4,6.48,14.6,87.1,1019.72,0.7,0.5,0,0,0.035706
2022/07/02 02:43:00.000,n,251,4.68,3.96,5.04,14.6,87,1019.72,0.7,0.2,0,0,0.035706
2022/07/02 02:44:00.000,n,273,2.88,2.16,3.24,14.6,87,1019.72,0.7,0.1,0,0,0.033951
2022/07/02 02:45:00.000,n,260,2.88,1.8,3.24,14.6,87.2,1019.62,0.7,0,0,0,0.0383
2022/07/02 02:46:00.005,n,243,2.88,2.52,3.24,14.6,87.2,1019.62,0.7,0.1,0,0,0.03746
2022/07/02 02:47:00.000,n,227,2.88,2.16,3.6,14.6,87.2,1019.62,0.7,0,0,0,0.03746
2022/07/02 02:48:00.000,n,271,3.24,2.88,4.32,14.7,87.2,1019.62,0.7,0,0,0,0.035706
2022/07/02 02:49:00.006,n,263,2.16,2.16,2.16,14.6,87.1,1019.62,0.7,0,0,0,0.036545
2022/07/02 02:50:00.013,n,257,3.24,2.88,3.96,14.6,87.1,1019.62,0.7,0,0,0,0.035706
2022/07/02 02:51:00.002,n,277,3.96,3.6,4.68,14.6,87.1,1019.72,0.7,0,0,0,0.0383
2022/07/02 02:52:00.000,n,263,5.4,4.68,6.12,14.6,87.1,1019.72,0.7,0,0,0,0.035706
2022/07/02 02:53:00.000,n,273,5.04,4.32,5.4,14.6,87.1,1019.62,0.7,0,0,0,0.034828
2022/07/02 02:54:00.003,n,271,3.6,1.44,4.68,14.7,87.3,1019.62,0.71,0,0,0,0.033951
2022/07/02 02:55:00.000,n,260,5.04,4.32,6.12,14.7,87.3,1019.72,0.71,0,0,0,0.033112
2022/07/02 02:56:00.000,n,264,3.96,3.6,4.68,14.7,87.2,1019.72,0.71,0,0,0,0.035706
2022/07/02 02:57:00.004,n,265,4.32,3.96,4.68,14.7,87.2,1019.72,0.71,0.2,0,0,0.035706
2022/07/02 02:58:00.011,n,265,5.04,4.32,5.4,14.7,87.3,1019.72,0.71,0.1,0,0,0.036545
2022/07/02 02:59:00.000,n,263,2.88,2.16,3.96,14.7,87.2,1019.72,0.73,0,0,0,0.034828
2022/07/02 03:00:00.007,n,261,3.96,3.24,4.32,14.7,87.1,1019.72,0.73,0.8,0,0,0.033112
2022/07/02 03:01:00.000,n,258,6.84,5.4,7.92,14.6,87,1019.72,0.73,0,0,0,0.0383
2022/07/02 03:02:00.003,n,266,5.04,4.68,5.76,14.6,87,1019.72,0.73,0,0,0,0.034828
2022/07/02 03:03:00.000,n,235,3.96,3.24,4.32,14.6,87,1019.72,0.73,0,0,0,0.033951
2022/07/02 03:04:00.000,n,273,4.68,2.52,5.76,14.6,87,1019.72,0.73,0,0,0,0.035706
2022/07/02 03:05:00.005,n,289,3.24,2.52,4.32,14.6,87,1019.72,0.73,0,0,0,0.033951
2022/07/02 03:06:00.011,n,256,3.6,3.24,3.96,14.6,87.1,1019.72,0.73,0.1,0,0,0.033112
2022/07/02 03:07:00.002,n,250,2.88,2.52,2.88,14.6,87.1,1019.72,0.75,1,0,0,0.034828
2022/07/02 03:08:00.008,n,230,2.52,2.16,2.88,14.6,87.1,1019.62,0.75,0,0,0,0.033951
2022/07/02 03:09:00.015,n,357,1.08,0.72,1.44,14.6,87.2,1019.62,0.75,0,0,0,0.033951
2022/07/02 03:10:00.000,n,268,3.24,3.24,3.6,14.6,87.2,1019.62,0.75,0.2,0,0,0.03746
2022/07/02 03:11:00.000,n,256,4.32,3.6,5.04,14.6,87.2,1019.62,0.75,0,0,0,0.034828
2022/07/02 03:12:00.000,n,260,3.24,2.52,3.96,14.6,87.2,1019.62,0.75,0,0,0,0.033112
2022/07/02 03:13:00.006,n,248,3.96,3.6,3.96,14.6,87.2,1019.62,0.75,0,0,0,0.034828
2022/07/02 03:14:00.000,n,262,4.32,3.24,5.4,14.6,87.1,1019.62,0.75,0,0,0,0.033951
2022/07/02 03:15:00.001,n,271,4.32,3.6,5.04,14.6,87.1,1019.52,0.76,0.5,0,0,0.034828
2022/07/02 03:16:00.008,n,199,2.52,1.8,2.88,14.6,87.1,1019.52,0.77,0.4,0,0,0.036545
2022/07/02 03:17:00.014,n,229,3.6,2.88,4.32,14.6,87.2,1019.52,0.77,0.1,0,0,0.035706
2022/07/02 03:18:00.004,n,256,2.88,2.52,3.6,14.6,87.2,1019.52,0.78,0,0,0,0.03746
2022/07/02 03:19:00.000,n,233,2.88,2.88,3.24,14.7,87.3,1019.52,0.79,0.6,0,0,0.033951
2022/07/02 03:20:00.000,n,246,3.6,2.88,3.96,14.7,87.3,1019.52,0.79,0.1,0,0,0.033112
2022/07/02 03:21:00.000,n,208,1.44,1.08,2.16,14.7,87.2,1019.42,0.79,0.3,0,0,0.0383
2022/07/02 03:22:00.000,n,178,0.72,0.36,0.72,14.7,87.2,1019.42,0.79,0,0,0,0.034828
2022/07/02 03:23:00.002,n,263,2.52,1.8,2.88,14.7,87.2,1019.42,0.8,0.1,0,0,0.034828
2022/07/02 03:24:00.009,n,256,1.8,0.72,2.52,14.7,87.3,1019.42,0.8,0,0,0,0.034828
2022/07/02 03:25:00.000,n,234,1.8,1.44,2.16,14.7,87.2,1019.42,0.8,0,0,0,0.031319
2022/07/02 03:26:00.005,n,275,2.52,1.44,3.6,14.7,87.3,1019.42,0.8,0,0,0,0.032196
2022/07/02 03:27:00.010,n,222,2.88,2.16,3.6,14.7,87.2,1019.42,0.8,0,0,0,0.031319
2022/07/02 03:28:00.000,n,235,2.52,2.16,2.88,14.7,87.3,1019.42,0.8,0,0,0,0.032196
2022/07/02 03:29:00.000,n,257,5.4,4.68,7.2,14.7,87.2,1019.42,0.84,2.2,0,0,0.033951
2022/07/02 03:30:00.000,n,261,5.76,4.68,6.84,14.7,87.2,1019.42,0.84,0,0,0,0.035706
2022/07/02 03:31:00.002,n,234,4.32,3.6,5.04,14.7,87.1,1019.42,0.84,0,0,0,0.036545
2022/07/02 03:32:00.008,n,268,2.88,2.16,3.6,14.7,87.2,1019.32,0.84,0,0,0,0.034828
2022/07/02 03:33:00.000,n,239,2.52,2.52,3.24,14.7,87.4,1019.32,0.84,0,0,0,0.033112
2022/07/02 03:34:00.003,n,260,3.24,2.52,3.96,14.7,87.3,1019.32,0.84,0,0,0,0.035706
2022/07/02 03:35:00.009,n,265,2.88,2.16,3.96,14.7,87.2,1019.22,0.84,0,0,0,0.034828
2022/07/02 03:36:00.015,n,317,3.24,1.8,4.32,14.7,87.3,1019.22,0.84,0,0,0,0.036545
2022/07/02 03:37:00.000,n,245,1.8,1.44,2.16,14.7,87.4,1019.22,0.84,0,0,0,0.035706
2022/07/02 03:38:00.000,n,221,2.16,1.44,3.24,14.7,87.3,1019.22,0.84,0,0,0,0.036545
2022/07/02 03:39:00.000,n,303,0.72,0.72,1.08,14.7,87.2,1019.22,0.84,0,0,0,0.035706
2022/07/02 03:40:00.006,n,245,1.08,0.72,1.44,14.7,87.2,1019.12,0.84,0,0,0,0.035706
2022/07/02 03:41:00.000,n,198,1.08,0.72,1.44,14.7,87.2,1019.12,0.84,0,0,0,0.036545
2022/07/02 03:42:00.001,n,212,1.08,0.36,1.44,14.7,87.2,1019.12,0.84,0,0,0,0.034828
2022/07/02 03:43:00.008,n,166,0.72,0.36,1.08,14.7,87.2,1019.12,0.84,0,0,0,0.033951
2022/07/02 03:44:00.013,n,278,5.4,4.32,6.12,14.7,87.2,1019.22,0.84,0,0,0,0.033951
2022/07/02 03:45:00.003,n,276,5.76,4.68,6.84,14.7,87.1,1019.22,0.84,0,0,0,0.034828
2022/07/02 03:46:00.000,n,316,1.08,0.36,2.16,14.6,87.1,1019.22,0.84,0,0,0,0.033951
2022/07/02 03:47:00.000,n,251,7.92,7.2,8.28,14.6,87,1019.22,0.84,0,0,0,0.033951
2022/07/02 03:48:00.001,n,250,6.12,5.4,7.2,14.6,87,1019.22,0.84,0,0,0,0.033951
2022/07/02 03:49:00.000,n,285,7.56,4.32,9.72,14.6,87.1,1019.12,0.84,0,0,0,0.033112
2022/07/02 03:50:00.000,n,234,5.04,4.32,5.76,14.6,87.1,1019.12,0.84,0.1,0,0,0.033112
2022/07/02 03:51:00.005,n,267,3.6,2.88,4.68,14.6,87,1019.12,0.84,0,0,0,0.033951
2022/07/02 03:52:00.011,n,263,7.92,7.56,8.28,14.6,87.1,1019.12,0.84,0,0,0,0.035706
2022/07/02 03:53:00.001,n,255,5.04,3.96,5.4,14.6,87,1019.12,0.87,1.5,0,0,0.036545
2022/07/02 03:54:00.007,n,256,7.92,7.2,9,14.5,87,1019.12,0.87,0,0,0,0.036545
2022/07/02 03:55:00.000,n,262,3.24,2.16,3.96,14.5,87,1019.12,0.87,0,0,0,0.036545
2022/07/02 03:56:00.002,n,271,2.88,2.52,3.6,14.5,87,1019.12,0.88,0.7,0,0,0.033951
2022/07/02 03:57:00.000,n,258,7.56,7.2,8.28,14.5,87,1019.12,0.88,0,0,0,0.033951
2022/07/02 03:58:00.000,n,270,5.04,3.6,5.76,14.5,87,1019.12,0.88,0,0,0,0.034828
2022/07/02 03:59:00.004,n,248,4.32,3.96,4.68,14.5,87,1019.12,0.88,0,0,0,0.034828
2022/07/02 04:00:00.010,n,243,4.68,3.96,5.4,14.5,87.1,1019.12,0.88,0,0,0,0.039177
2022/07/02 04:01:00.001,n,199,1.8,1.44,1.8,14.5,87.1,1019.12,0.88,0,0,0,0.033112
2022/07/02 04:02:00.006,n,306,5.04,4.32,5.4,14.5,87.1,1019.12,0.88,0,0,0,0.034828
2022/07/02 04:03:00.012,n,255,2.52,2.52,3.24,14.5,87.2,1019.12,0.88,0,0,0,0.03746
2022/07/02 04:04:00.000,n,268,2.88,2.16,3.24,14.6,87.2,1019.12,0.88,0,0,0,0.035706
2022/07/02 04:05:00.000,n,261,2.52,1.8,3.24,14.6,87.2,1019.02,0.88,0,0,0,0.033951
2022/07/02 04:06:00.000,n,265,1.8,1.44,2.16,14.6,87.2,1019.02,0.88,0,0,0,0.034828
2022/07/02 04:07:00.003,n,225,2.16,1.08,3.6,14.6,87.2,1019.12,0.88,0,0,0,0.03746
2022/07/02 04:08:00.008,n,252,4.32,3.96,4.68,14.6,87.2,1019.12,0.88,0,0,0,0.036545
2022/07/02 04:09:00.000,n,270,5.76,5.04,6.48,14.5,87.1,1019.02,0.88,0,0,0,0.03746
2022/07/02 04:10:00.003,n,259,4.68,3.96,6.12,14.5,87.1,1019.02,0.88,0,0,0,0.035706
2022/07/02 04:11:00.009,n,269,6.12,5.4,7.2,14.5,87.1,1019.02,0.88,0,0,0,0.034828
2022/07/02 04:12:00.015,n,269,2.88,2.52,3.24,14.5,87.1,1019.02,0.88,0,0,0,0.03746
2022/07/02 04:13:00.000,n,271,5.04,3.96,5.76,14.5,87.2,1019.02,0.88,0,0,0,0.035706
2022/07/02 04:14:00.000,n,255,2.88,2.16,3.6,14.5,87.2,1019.02,0.88,0,0,0,0.033112
2022/07/02 04:15:00.000,n,253,4.32,3.96,4.68,14.5,87.1,1018.92,0.88,0,0,0,0.034828
2022/07/02 04:16:00.004,n,227,2.16,1.8,2.52,14.5,87.1,1018.92,0.88,0,0,0,0.03746
2022/07/02 04:17:00.000,n,287,2.52,1.8,2.88,14.5,87.2,1018.92,0.88,0,0,0,0.039177
2022/07/02 04:18:00.000,n,269,3.24,2.88,3.6,14.5,87.2,1018.92,0.88,0,0,0,0.036545
2022/07/02 04:19:00.005,n,256,5.04,4.32,5.4,14.6,87.2,1019.02,0.88,0,0,0,0.034828
2022/07/02 04:20:00.011,n,254,2.52,2.16,3.96,14.5,87.2,1019.02,0.88,0,0,0,0.03746
2022/07/02 04:21:00.000,n,262,2.88,2.16,3.6,14.5,87.2,1019.02,0.88,0,0,0,0.036545
2022/07/02 04:22:00.000,n,194,2.52,1.8,2.88,14.6,87.3,1019.02,0.88,0,0,0,0.035706
2022/07/02 04:23:00.000,n,319,2.52,1.8,3.24,14.6,87.4,1019.02,0.88,0,0,0,0.034828
2022/07/02 04:24:00.000,n,267,5.4,5.04,6.12,14.6,87.4,1019.02,0.88,0,0,0,0.034828
2022/07/02 04:25:00.006,n,262,2.88,2.52,3.24,14.6,87.3,1019.12,0.88,0,0,0,0.036545
2022/07/02 04:26:00.000,n,265,5.04,4.32,6.84,14.6,87.2,1019.12,0.88,0,0,0,0.034828
2022/07/02 04:27:00.003,n,232,2.88,2.16,3.24,14.6,87.1,1019.12,0.89,0.1,0,0,0.033951
2022/07/02 04:28:00.010,n,107,0.72,0.36,1.08,14.6,87.1,1019.12,0.89,0.2,0,0,0.032196
2022/07/02 04:29:00.000,n,242,6.48,5.4,7.92,14.5,87.1,1019.12,0.89,0,0,0,0.032196
2022/07/02 04:30:00.007,n,265,8.64,7.92,9.36,14.5,87.1,1019.12,0.89,0,0,0,0.033112
2022/07/02 04:31:00.000,n,260,6.12,5.4,6.48,14.5,87.1,1019.12,0.89,0,0,0,0.030479
2022/07/02 04:32:00.003,n,265,3.96,3.24,5.04,14.5,87.1,1019.12,0.9,0.1,0,0,0.033112
2022/07/02 04:33:00.000,n,272,2.88,1.08,4.32,14.5,87.1,1019.12,0.9,0.1,0,0,0.034828
2022/07/02 04:34:00.000,n,254,5.04,4.32,5.4,14.5,87.1,1019.12,0.9,0.3,0,0,0.033112
2022/07/02 04:35:00.005,n,263,6.12,5.76,6.48,14.5,87.1,1019.12,0.9,0,0,0,0.034828
2022/07/02 04:36:00.000,n,250,3.96,3.6,4.32,14.5,87.1,1019.22,0.92,0.9,0,0,0.035706
2022/07/02 04:37:00.002,n,265,5.04,4.32,5.76,14.5,87.1,1019.22,0.92,0,0,0,0.034828
2022/07/02 04:38:00.008,n,245,4.32,3.96,4.68,14.5,87.2,1019.32,0.92,0.4,0,0,0.0383
2022/07/02 04:39:00.015,n,266,5.4,4.32,6.12,14.5,87.2,1019.32,0.93,0,0,0,0.035706
2022/07/02 04:40:00.000,n,251,3.6,3.6,4.32,14.5,87.2,1019.32,0.93,0,0,0,0.033951
2022/07/02 04:41:00.000,n,287,4.32,2.88,5.04,14.5,87.2,1019.32,0.94,0.6,0,0,0.034828
2022/07/02 04:42:00.000,n,247,6.84,6.48,7.2,14.5,87.2,1019.32,0.94,0,0,0,0.036545
2022/07/02 04:43:00.006,n,248,4.68,3.6,5.4,14.5,87.1,1019.32,0.94,0,0,0,0.035706